[[{"header":{"parameterUnit":"m.s-1","parameterCategory":1,"la1":30.2991,"la2":30.254,"lo1":-89.0895,"lo2":-89.0444,"dy":0.0017,"dx":0.0017,"nx":28,"ny":28,"refTime":"2025-01-16T03:00:00:Z","depth":0,"parameterNumber":2,"parameterNumberName":"U-component_of_WINDS"},"data":[0,0,0,0,0,0,0,0,0,0,0,0,0,0,0,0,0,0,0,0,0,0,0,0,0,0,0,0,0,0,0,0,0,0,0,0,0,0,0,0,0,0,0,0,0,0,0,0,0,0,0,0,0,0,0,0,0,0,-2.0992,-2.0993,0,-2.1057,-2.1058,-2.1058,-2.1081,-2.108,-2.108,-2.108,-2.1144,-2.1146,-2.1147,0,0,0,0,0,0,0,0,0,0,0,0,0,-2.0883,-2.0885,-2.0992,-2.0993,-2.0993,-2.1057,-2.1058,-2.1059,-2.1081,-2.108,-2.108,-2.108,-2.1143,-2.1145,-2.1148,0,0,0,0,0,0,0,0,0,0,0,0,0,-2.0938,-2.0886,-2.0992,-2.1012,-2.1015,-2.1057,-2.1058,-2.1059,-2.1081,-2.108,-2.108,-2.108,-2.1142,-2.1145,-2.1148,-2.1174,0,0,-2.1157,-2.1158,0,0,0,0,0,0,0,0,-2.0935,-2.0942,-2.1008,-2.1011,-2.1014,-2.106,-2.1043,-2.1097,-2.1081,-2.1055,-2.108,-2.1079,-2.1116,-2.1121,-2.1134,-2.1177,-2.1179,-2.1157,-2.1159,-2.116,-2.1161,0,0,0,0,0,0,0,-2.0931,-2.0939,-2.1018,-2.1009,-2.1013,-2.1017,-2.1024,-2.1053,-2.1087,-2.1058,-2.1059,-2.1067,-2.1117,-2.1131,-2.1136,-2.118,-2.1157,-2.116,-2.1161,-2.1163,-2.1246,-2.1246,0,0,0,0,0,0,-2.0924,-2.0936,-2.1015,-2.102,-2.0972,-2.1019,-2.1027,-2.1046,-2.1087,-2.1093,-2.1067,-2.1068,-2.1126,-2.1132,-2.1138,-2.117,-2.116,-2.1163,-2.1164,-2.1246,-2.1246,-2.1247,0,0,0,0,0,0,-2.0922,-2.0931,-2.1013,-2.0978,-2.0989,-2.1022,-2.1042,-2.1047,-2.1061,-2.1094,-2.11,-2.1075,-2.1126,-2.1134,-2.1165,-2.1173,-2.1164,-2.1167,-2.1245,-2.1246,-2.1246,-2.1235,0,0,0,0,0,0,-2.0918,-2.093,-2.0941,-2.0978,-2.0991,-2.1039,-2.1042,-2.1049,-2.1066,-2.1068,-2.1103,-2.1109,-2.1127,-2.116,-2.1167,-2.1177,-2.1169,-2.1244,-2.1245,-2.1246,-2.1235,-2.1235,-2.1236,0,0,0,0,0,-2.0914,-2.0935,-2.0941,-2.0951,-2.1005,-2.104,-2.1047,-2.1068,-2.1067,-2.1078,-2.1099,-2.1108,-2.1171,-2.1163,-2.1172,-2.1182,-2.1244,-2.1245,-2.1246,-2.1235,-2.1235,-2.1236,0,0,0,0,0,0,-2.0897,-2.094,-2.0948,-2.0981,-2.1006,-2.1043,-2.1058,-2.1068,-2.1093,-2.1093,-2.1118,-2.1125,-2.1154,-2.1171,-2.1162,-2.1208,-2.1208,-2.121,-2.1196,-2.1197,-2.1197,-2.1192,-2.1171,0,0,0,0,0,-2.0897,-2.0922,-2.0958,-2.0984,-2.0996,-2.1025,-2.104,-2.1054,-2.1082,-2.1092,-2.1116,-2.1141,-2.1166,-2.1183,-2.1208,-2.1237,-2.1245,-2.1248,-2.1249,-2.1249,-2.1251,-2.1267,-2.1268,-2.125,-2.125,-2.125,0,0,-2.0897,-2.0923,-2.0938,-2.0981,-2.1002,-2.1027,-2.1034,-2.106,-2.1078,-2.1096,-2.1126,-2.1144,-2.1174,-2.1204,-2.1218,-2.1219,-2.1258,-2.125,-2.125,-2.1252,-2.1268,-2.127,-2.1271,-2.1251,-2.1251,-2.1251,0,0,-2.0909,-2.0933,-2.0956,-2.0978,-2.101,-2.1029,-2.1034,-2.107,-2.1083,-2.1114,-2.1128,-2.1149,-2.1193,-2.1213,-2.1229,-2.1249,-2.1258,-2.1256,-2.1258,-2.1273,-2.1275,-2.1276,-2.1282,-2.1284,-2.1258,-2.1258,-2.1258,0,-2.0905,-2.0944,-2.0967,-2.0992,-2.101,-2.1028,-2.1052,-2.1071,-2.111,-2.1121,-2.1122,-2.1176,-2.1198,-2.1232,-2.1237,-2.125,-2.1256,-2.1252,-2.1273,-2.1275,-2.1276,-2.1282,-2.1285,-2.1258,-2.1258,-2.1258,-2.1258,0,-2.0936,-2.0963,-2.0978,-2.1016,-2.1035,-2.1059,-2.1085,-2.1102,-2.1114,-2.1132,-2.1163,-2.1189,-2.122,-2.1229,-2.1241,-2.1265,-2.1264,-2.1268,-2.1268,-2.1277,-2.1283,-2.1286,-2.1257,-2.1257,-2.1257,-2.1257,0,0,-2.094,-2.099,-2.0995,-2.1012,-2.1049,-2.1069,-2.1094,-2.1124,-2.1138,-2.1164,-2.1184,-2.1221,-2.1225,-2.1243,-2.1257,-2.127,-2.1283,-2.1273,-2.1274,-2.1273,-2.131,-2.1307,-2.1309,-2.129,-2.129,-2.1291,-2.1308,0,-2.0957,-2.1002,-2.1023,-2.1059,-2.1083,-2.11,-2.1121,-2.1146,-2.1163,-2.1185,-2.1204,-2.123,-2.1233,-2.1244,-2.1259,-2.1279,-2.1291,-2.1278,-2.1308,-2.1308,-2.1299,-2.1313,-2.1309,-2.1324,-2.131,-2.1311,-2.1311,0,-2.0983,-2.1009,-2.1047,-2.1081,-2.1092,-2.1111,-2.114,-2.1162,-2.1189,-2.1201,-2.1221,-2.1234,-2.126,-2.1258,-2.1292,-2.1283,-2.1296,-2.1308,-2.1309,-2.1312,-2.131,-2.1315,-2.1329,-2.1331,-2.1315,-2.1315,-2.1315,0,-2.098,-2.1025,-2.1054,-2.1068,-2.1108,-2.1121,-2.1138,-2.1165,-2.1182,-2.1208,-2.1219,-2.1246,-2.1261,-2.1282,-2.1302,-2.1299,-2.1334,-2.1334,-2.1344,-2.1343,-2.135,-2.1349,-2.1365,-2.1359,-2.1359,-2.1359,-2.1359,0,-2.0997,-2.1019,-2.1053,-2.1071,-2.1096,-2.112,-2.1144,-2.1162,-2.1186,-2.1207,-2.1223,-2.1242,-2.1268,-2.1289,-2.1305,-2.1331,-2.1337,-2.1347,-2.1351,-2.1345,-2.1344,-2.1354,-2.1353,-2.136,-2.136,-2.1359,-2.1359,0,-2.0998,-2.1022,-2.1054,-2.109,-2.1099,-2.1116,-2.1146,-2.1163,-2.1181,-2.1207,-2.1214,-2.1243,-2.1269,-2.1291,-2.1326,-2.1336,-2.1363,-2.1367,-2.1353,-2.1355,-2.1363,-2.1362,-2.1386,-2.139,-2.1382,-2.1382,-2.1382,0,-2.1007,-2.1024,-2.1062,-2.1077,-2.1094,-2.1119,-2.1136,-2.1159,-2.1177,-2.1209,-2.1222,-2.125,-2.1273,-2.1314,-2.1337,-2.1363,-2.1369,-2.1375,-2.1373,-2.1366,-2.1368,-2.1366,-2.1368,-2.1375,-2.1375,-2.1375,-2.1375,0,-2.1019,-2.103,-2.1055,-2.1084,-2.1104,-2.1128,-2.1152,-2.1163,-2.1191,-2.1209,-2.1237,-2.1255,-2.129,-2.1317,-2.1346,-2.1362,-2.1373,-2.1376,-2.1379,-2.1374,-2.1365,-2.1369,-2.1353,-2.1375,-2.1375,-2.1375,-2.1375,-2.1375,-2.1024,-2.104,-2.1069,-2.1096,-2.1117,-2.1139,-2.1156,-2.1177,-2.1201,-2.1232,-2.1244,-2.1272,-2.1298,-2.1338,-2.1354,-2.1376,-2.1377,-2.1382,-2.1384,-2.1384,-2.1383,-2.1361,-2.1381,-2.1381,-2.1381,-2.1381,-2.1381,0,-2.1037,-2.1056,-2.1081,-2.1114,-2.1135,-2.1144,-2.1171,-2.1188,-2.1212,-2.1236,-2.1259,-2.129,-2.1316,-2.1341,-2.1368,-2.1381,-2.1386,-2.1387,-2.1386,-2.1389,-2.1381,-2.1375,-2.1382,-2.1382,-2.1382,-2.1382,-2.1382,-2.1382,-2.1046,-2.1074,-2.1088,-2.1126,-2.1145,-2.1173,-2.1188,-2.1208,-2.1227,-2.1261,-2.1283,-2.13,-2.1324,-2.1353,-2.1377,-2.1383,-2.1392,-2.1392,-2.1399,-2.1391,-2.139,-2.139,-2.1384,-2.1394,-2.1394,-2.1407,-2.1407,-2.1407]},{"header":{"parameterUnit":"m.s-1","parameterCategory":1,"la1":30.2991,"la2":30.254,"lo1":-89.0895,"lo2":-89.0444,"dy":0.0017,"dx":0.0017,"nx":28,"ny":28,"refTime":"2025-01-16T03:00:00:Z","depth":0,"parameterNumber":3,"parameterNumberName":"V-component_of_WINDS"},"data":[0,0,0,0,0,0,0,0,0,0,0,0,0,0,0,0,0,0,0,0,0,0,0,0,0,0,0,0,0,0,0,0,0,0,0,0,0,0,0,0,0,0,0,0,0,0,0,0,0,0,0,0,0,0,0,0,0,0,4.1063,4.1064,0,4.1154,4.1156,4.1157,4.1132,4.1131,4.1129,4.1127,4.1223,4.1227,4.1231,0,0,0,0,0,0,0,0,0,0,0,0,0,4.0871,4.0874,4.1063,4.1064,4.1065,4.1154,4.1156,4.1157,4.1133,4.113,4.1128,4.1126,4.1222,4.1227,4.1232,0,0,0,0,0,0,0,0,0,0,0,0,0,4.0957,4.0875,4.1063,4.1064,4.1065,4.1154,4.1156,4.1157,4.1133,4.113,4.1128,4.1125,4.122,4.1226,4.1232,4.1327,0,0,4.1252,4.1255,0,0,0,0,0,0,0,0,4.0953,4.0964,4.1062,4.1064,4.1065,4.1129,4.1123,4.1214,4.1134,4.1107,4.1127,4.1124,4.1194,4.1202,4.1226,4.1331,4.1335,4.1253,4.1256,4.1259,4.1261,0,0,0,0,0,0,0,4.0947,4.096,4.1099,4.1064,4.1066,4.1061,4.107,4.114,4.1165,4.1109,4.1108,4.1119,4.1194,4.122,4.1228,4.1337,4.1252,4.1258,4.1262,4.1264,4.1528,4.1531,0,0,0,0,0,0,4.0939,4.0956,4.1096,4.1102,4.1001,4.1067,4.1077,4.1111,4.1164,4.117,4.1121,4.1117,4.121,4.122,4.1231,4.1348,4.1259,4.1265,4.1269,4.1525,4.1529,4.1532,0,0,0,0,0,0,4.0935,4.0952,4.1093,4.1028,4.1046,4.1073,4.1112,4.1115,4.114,4.1173,4.1178,4.1142,4.1208,4.1222,4.1304,4.1351,4.1268,4.1274,4.1521,4.1526,4.153,4.158,0,0,0,0,0,0,4.093,4.095,4.0986,4.1029,4.1049,4.1163,4.1114,4.1118,4.1151,4.1147,4.1194,4.1199,4.1207,4.1294,4.131,4.1358,4.1279,4.1517,4.1523,4.1529,4.1575,4.1586,4.1596,0,0,0,0,0,4.0923,4.0996,4.0988,4.1005,4.1094,4.1165,4.1177,4.1184,4.1154,4.1191,4.1213,4.1198,4.1343,4.1303,4.1321,4.1371,4.1514,4.1522,4.1529,4.157,4.1584,4.1596,0,0,0,0,0,0,4.0957,4.1001,4.0993,4.1082,4.112,4.1161,4.1207,4.1198,4.1246,4.1241,4.1248,4.1259,4.1343,4.1365,4.132,4.1467,4.1424,4.1435,4.145,4.1463,4.1474,4.1468,4.1284,0,0,0,0,0,4.0975,4.1029,4.1065,4.114,4.1159,4.118,4.1212,4.1214,4.1254,4.127,4.1298,4.1338,4.1393,4.1429,4.1481,4.1577,4.1589,4.1621,4.1631,4.164,4.165,4.1706,4.1722,4.1556,4.1556,4.1555,0,0,4.1013,4.1043,4.1077,4.1148,4.1177,4.1235,4.1194,4.1255,4.1298,4.128,4.1359,4.1381,4.1427,4.1517,4.1558,4.1538,4.1698,4.1649,4.1656,4.1661,4.1715,4.1731,4.1745,4.156,4.156,4.1559,0,0,4.1111,4.1138,4.1206,4.1237,4.1282,4.1296,4.1312,4.1355,4.1369,4.1449,4.1437,4.1489,4.1582,4.1616,4.1646,4.1759,4.1749,4.1776,4.1833,4.1887,4.19,4.1912,4.1955,4.197,4.1785,4.1785,4.1786,0,4.1152,4.1237,4.1241,4.1305,4.1338,4.1323,4.1393,4.1422,4.1483,4.1507,4.1483,4.1602,4.1631,4.1731,4.1759,4.1782,4.1803,4.1771,4.1897,4.1909,4.192,4.1962,4.1978,4.1789,4.1788,4.1788,4.1788,0,4.1287,4.1346,4.1395,4.1454,4.1492,4.1558,4.1574,4.1612,4.1612,4.1628,4.1712,4.1746,4.1807,4.183,4.1829,4.1931,4.1917,4.1895,4.1853,4.1939,4.1979,4.1995,4.1793,4.1792,4.1791,4.179,0,0,4.141,4.1472,4.149,4.1518,4.1569,4.1615,4.1681,4.174,4.1774,4.1816,4.1874,4.1954,4.1935,4.1969,4.1972,4.2019,4.2111,4.1992,4.1994,4.2016,4.2229,4.2247,4.2265,4.2103,4.2106,4.2109,4.2226,0,4.1515,4.1631,4.1638,4.1744,4.1801,4.1788,4.1846,4.1885,4.1902,4.1954,4.1973,4.2031,4.2,4.2021,4.2067,4.209,4.2155,4.2081,4.216,4.2162,4.2151,4.2285,4.2304,4.2413,4.2241,4.2244,4.2245,0,4.1653,4.1701,4.1813,4.1857,4.1881,4.1933,4.1989,4.2037,4.2081,4.2091,4.213,4.2127,4.2197,4.2151,4.2249,4.22,4.2232,4.2248,4.2253,4.2263,4.2211,4.2302,4.2447,4.2465,4.2269,4.2267,4.2266,0,4.1736,4.1827,4.1907,4.1931,4.1984,4.2022,4.2046,4.2087,4.2123,4.2172,4.2195,4.2252,4.2284,4.2328,4.2342,4.2306,4.2441,4.2395,4.2454,4.2454,4.2484,4.2483,4.2641,4.25,4.25,4.25,4.2499,0,4.1854,4.1924,4.1945,4.1994,4.2073,4.2081,4.2159,4.2181,4.2218,4.2272,4.2264,4.2316,4.2329,4.2384,4.2395,4.2477,4.249,4.2502,4.2505,4.2505,4.2504,4.2528,4.2522,4.2504,4.2503,4.2502,4.2502,0,4.196,4.1977,4.2064,4.2107,4.212,4.2176,4.2214,4.2263,4.2279,4.2349,4.2366,4.2393,4.2457,4.2475,4.2551,4.2559,4.2656,4.265,4.2642,4.2643,4.2701,4.2697,4.2883,4.2909,4.2748,4.275,4.2751,0,4.2036,4.209,4.2139,4.2175,4.2201,4.2259,4.2296,4.2306,4.2345,4.24,4.2443,4.2506,4.2557,4.2661,4.2689,4.2748,4.2745,4.2806,4.2754,4.2754,4.2751,4.2748,4.2755,4.2817,4.2819,4.282,4.2821,0,4.217,4.2176,4.2229,4.2286,4.233,4.2375,4.2418,4.2449,4.2465,4.251,4.2575,4.2615,4.2695,4.2759,4.2819,4.2846,4.2838,4.2837,4.2855,4.2857,4.2851,4.2858,4.2672,4.2833,4.2832,4.2831,4.2831,4.283,4.2266,4.2314,4.2357,4.2417,4.2451,4.2492,4.2541,4.2564,4.2619,4.2684,4.2686,4.2759,4.2804,4.2884,4.2914,4.2972,4.2954,4.2978,4.2985,4.2992,4.2998,4.2839,4.2983,4.2982,4.2982,4.2982,4.2981,0,4.2402,4.2429,4.2484,4.2546,4.2594,4.258,4.2628,4.267,4.2734,4.2776,4.2827,4.2904,4.2967,4.2999,4.3062,4.3102,4.3101,4.3119,4.3118,4.3125,4.3009,4.2989,4.312,4.312,4.312,4.312,4.312,4.3119,4.2479,4.2561,4.2572,4.2672,4.2699,4.2769,4.2799,4.2838,4.2871,4.2958,4.301,4.303,4.307,4.3136,4.3193,4.3201,4.3227,4.3248,4.3254,4.3146,4.3132,4.3119,4.3101,4.3252,4.3252,4.3365,4.3367,4.3367]}]]